FW8528 Weather Reports


time (UTC)temp
F
wind
direction
speed
knots
gust
knots
rain 1hr
in
rain 24hr
in
rain mn
in
humidity
%
barometer
mb
20260504003520 83 277 0.9 1.7 0.00 0.00 0.00 34 1009.9
20260504003017 82 229 0.0 0.0 0.00 0.00 0.00 37 1009.9
20260504002514 82 228 0.9 0.9 0.00 0.00 0.00 38 1009.9
20260504002012 83 208 0.0 0.9 0.00 0.00 0.00 36 1009.9
20260504001509 83 249 0.9 1.7 0.00 0.00 0.00 34 1009.9
20260504001005 84 232 0.9 0.9 0.00 0.00 0.00 33 1009.9
20260504000503 84 228 0.9 0.9 0.00 0.00 0.00 32 1010.3
20260504000000 84 266 0.9 0.9 0.00 0.00 0.00 31 1009.9
20260503235458 84 273 0.9 0.9 0.00 0.00 0.00 31 1010.3
20260503234954 84 223 0.9 0.9 0.00 0.00 0.00 34 1010.3
20260503234452 84 177 0.9 1.7 0.00 0.00 0.00 41 1010.3
20260503233950 83 218 0.9 1.7 0.00 0.00 0.00 32 1010.3
20260503233446 83 176 2.6 2.6 0.00 0.00 0.00 34 1010.3
20260503232943 83 164 1.7 1.7 0.00 0.00 0.00 37 1010.3
20260503232439 83 244 1.7 2.6 0.00 0.00 0.00 33 1010.6
20260503231937 84 150 1.7 1.7 0.00 0.00 0.00 36 1010.6
20260503231435 84 244 0.9 0.9 0.00 0.00 0.00 36 1010.6
20260503230931 85 243 1.7 1.7 0.00 0.00 0.00 32 1010.6
20260503230428 84 253 0.9 0.9 0.00 0.00 0.00 34 1010.6
20260503225925 84 197 2.6 2.6 0.00 0.00 0.00 34 1010.6
20260503225422 85 213 2.6 4.3 0.00 0.00 0.00 35 1010.6
20260503224918 86 216 1.7 1.7 0.00 0.00 0.00 32 1010.9
20260503224415 85 230 0.0 0.0 0.00 0.00 0.00 32 1010.9
20260503223912 85 142 1.7 2.6 0.00 0.00 0.00 35 1011.3
20260503223410 85 215 1.7 1.7 0.00 0.00 0.00 32 1011.3
20260503222910 85 216 3.5 4.3 0.00 0.00 0.00 30 1011.3
20260503222409 85 233 2.6 4.3 0.00 0.00 0.00 35 1011.3
20260503221907 84 258 3.5 4.3 0.00 0.00 0.00 31 1011.3
20260503221406 84 274 2.6 2.6 0.00 0.00 0.00 32 1010.9
20260503220901 83 219 0.9 0.9 0.00 0.00 0.00 32 1011.3
20260503220358 85 235 1.7 2.6 0.00 0.00 0.00 33 1011.3
20260503215855 84 200 1.7 1.7 0.00 0.00 0.00 35 1011.3
20260503215352 82 232 0.9 0.9 0.00 0.00 0.00 36 1011.3
20260503214849 83 286 0.0 0.9 0.00 0.00 0.00 41 1011.7
20260503214347 85 97 1.7 2.6 0.00 0.00 0.00 33 1011.3
20260503213844 84 344 2.6 2.6 0.00 0.00 0.00 34 1011.7
20260503213342 84 217 0.9 0.9 0.00 0.00 0.00 34 1011.7
20260503212838 84 252 1.7 1.7 0.00 0.00 0.00 35 1011.7
20260503212336 82 348 0.9 1.7 0.00 0.00 0.00 37 1011.7
20260503211833 82 208 2.6 2.6 0.00 0.00 0.00 35 1012.0
20260503211330 81 168 3.5 4.3 0.00 0.00 0.00 35 1012.0
20260503210825 81 239 2.6 4.3 0.00 0.00 0.00 34 1012.0
20260503210323 82 236 2.6 2.6 0.00 0.00 0.00 36 1011.7
20260503205818 83 270 0.9 1.7 0.00 0.00 0.00 36 1012.0
20260503205314 82 257 1.7 1.7 0.00 0.00 0.00 36 1012.0
20260503204811 82 294 0.9 0.9 0.00 0.00 0.00 38 1012.0
20260503204309 82 300 0.0 0.9 0.00 0.00 0.00 39 1012.4
20260503203806 82 200 1.7 2.6 0.00 0.00 0.00 38 1012.4
20260503203303 81 271 0.9 1.7 0.00 0.00 0.00 38 1012.4
20260503202800 81 228 4.3 5.2 0.00 0.00 0.00 37 1012.4
20260503202258 80 299 0.9 0.9 0.00 0.00 0.00 45 1012.4
20260503201755 80 125 2.6 2.6 0.00 0.00 0.00 43 1012.4
20260503201252 79 118 2.6 4.3 0.00 0.00 0.00 42 1012.4
20260503200750 79 171 0.9 0.9 0.00 0.00 0.00 43 1012.7
20260503200246 78 133 0.9 1.7 0.00 0.00 0.00 41 1012.7
20260503195743 79 153 3.5 4.3 0.00 0.00 0.00 43 1012.7
20260503195239 79 188 0.9 1.7 0.00 0.00 0.00 45 1012.7
20260503194737 79 154 2.6 2.6 0.00 0.00 0.00 42 1012.7
20260503194233 78 35 0.9 0.9 0.00 0.00 0.00 44 1013.1
20260503193729 78 149 1.7 1.7 0.00 0.00 0.00 46 1012.7
20260503193225 78 138 0.9 0.9 0.00 0.00 0.00 43 1012.7
20260503192721 77 168 3.5 4.3 0.00 0.00 0.00 45 1013.1
20260503192216 78 227 0.0 0.0 0.00 0.00 0.00 48 1013.1
20260503191713 76 266 0.0 0.0 0.00 0.00 0.00 46 1013.1
20260503191211 76 264 0.9 0.9 0.00 0.00 0.00 47 1013.1
20260503190707 75 112 2.6 2.6 0.00 0.00 0.00 45 1013.1
20260503190204 77 121 1.7 1.7 0.00 0.00 0.00 43 1013.1
20260503185701 76 298 0.9 1.7 0.00 0.00 0.00 46 1013.4
20260503185156 75 278 0.9 1.7 0.00 0.00 0.00 45 1013.4
20260503184651 76 288 0.9 1.7 0.00 0.00 0.00 45 1013.1
20260503184148 77 159 0.9 1.7 0.00 0.00 0.00 45 1013.4
20260503183644 76 320 1.7 1.7 0.00 0.00 0.00 47 1013.4
20260503183142 76 27 0.0 0.0 0.00 0.00 0.00 46 1013.4
20260503182640 75 158 0.9 0.9 0.00 0.00 0.00 46 1013.4
20260503182139 73 230 0.0 0.0 0.00 0.00 0.00 46 1013.4
20260503181635 73 241 1.7 2.6 0.00 0.00 0.00 47 1013.4
20260503181132 72 289 0.9 1.7 0.00 0.00 0.00 49 1013.4
20260503180628 72 139 0.0 0.9 0.00 0.00 0.00 49 1013.4
20260503180126 71 297 0.0 0.9 0.00 0.00 0.00 53 1013.4
20260503175623 71 320 0.9 0.9 0.00 0.00 0.00 53 1013.7
20260503175120 70 179 1.7 1.7 0.00 0.00 0.00 57 1013.4
20260503174617 70 190 0.9 0.9 0.00 0.00 0.00 55 1013.4
20260503174114 70 266 0.0 0.0 0.00 0.00 0.00 57 1013.7
20260503173609 69 218 0.9 0.9 0.00 0.00 0.00 57 1013.4
20260503173106 69 211 0.9 0.9 0.00 0.00 0.00 57 1013.7
20260503172603 68 297 0.0 0.9 0.00 0.00 0.00 57 1013.7
20260503172100 68 114 1.7 1.7 0.00 0.00 0.00 57 1013.7
20260503171556 68 218 0.9 0.9 0.00 0.00 0.00 60 1013.7
20260503171054 68 225 0.0 0.0 0.00 0.00 0.00 59 1013.7
20260503170550 68 146 1.7 1.7 0.00 0.00 0.00 63 1013.7
20260503150942 54 263 0.0 0.0 0.00 0.00 0.00 91 1014.1
20260503150439 54 263 0.0 0.0 0.00 0.00 0.00 93 1013.7
20260503131332 50 265 0.0 0.0 0.00 0.00 0.00 99 1013.7
20260503130829 49 265 0.0 0.0 0.00 0.00 0.00 99 1013.7
20260503130327 49 265 0.0 0.0 0.00 0.00 0.00 99 1013.7
20260503110720 51 266 0.0 0.0 0.00 0.00 0.00 95 1014.1
20260503110218 51 266 0.0 0.0 0.00 0.00 0.00 95 1014.1
20260503100144 52 266 0.0 0.0 0.00 0.00 0.00 93 1014.1
20260503081533 53 266 0.0 0.0 0.00 0.00 0.00 92 1014.8
20260503081030 53 266 0.0 0.0 0.00 0.00 0.00 91 1014.4
20260503080526 53 266 0.0 0.0 0.00 0.00 0.00 91 1014.4
20260503072500 53 266 0.0 0.0 0.00 0.00 0.00 92 1014.4
20260503071957 54 266 0.0 0.0 0.00 0.00 0.00 92 1014.4
20260503071454 54 266 0.0 0.0 0.00 0.00 0.00 94 1014.4
20260503070950 55 266 0.0 0.0 0.00 0.00 0.00 92 1014.4
20260503070447 55 266 0.0 0.0 0.00 0.00 0.00 90 1014.4
20260503054906 56 266 0.0 0.0 0.00 0.00 0.00 99 1014.4
20260503054402 56 266 0.0 0.0 0.00 0.00 0.00 98 1014.1
20260503053900 56 266 0.0 0.0 0.00 0.00 0.00 98 1014.4
20260503053358 56 266 0.0 0.0 0.00 0.00 0.00 98 1014.1
20260503052854 57 266 0.0 0.0 0.00 0.00 0.00 98 1014.1
20260503052351 56 266 0.0 0.0 0.00 0.00 0.00 97 1014.4
20260503051847 57 266 0.0 0.0 0.00 0.00 0.00 96 1014.1
20260503051344 56 266 0.0 0.0 0.00 0.00 0.00 95 1014.1
20260503050841 57 266 0.0 0.0 0.00 0.00 0.00 96 1014.1
20260503050337 57 266 0.0 0.0 0.00 0.00 0.00 96 1014.1
20260503045834 57 266 0.0 0.0 0.00 0.00 0.00 96 1014.1
20260503045332 57 266 0.0 0.0 0.00 0.00 0.00 95 1014.1
20260503044828 58 266 0.0 0.0 0.00 0.00 0.00 95 1014.1
20260503044325 58 266 0.0 0.0 0.00 0.00 0.00 94 1014.1
20260503043822 58 266 0.0 0.0 0.00 0.00 0.00 91 1014.1
20260503043319 59 266 0.0 0.0 0.00 0.00 0.00 91 1014.1
20260503042815 59 266 0.0 0.0 0.00 0.00 0.00 85 1013.7
20260503042313 59 266 0.0 0.0 0.00 0.00 0.00 89 1014.1
20260503041808 59 266 0.0 0.0 0.00 0.00 0.00 91 1014.1
20260503041306 59 266 0.0 0.0 0.00 0.00 0.00 88 1013.7
20260503040804 60 266 0.0 0.0 0.00 0.00 0.00 92 1013.7
20260503040301 60 266 0.0 0.0 0.00 0.00 0.00 91 1014.1
20260503035757 60 266 0.0 0.0 0.00 0.00 0.00 88 1013.7
20260503035255 60 265 0.0 0.0 0.00 0.00 0.00 90 1013.7
20260503034752 61 266 0.0 0.0 0.00 0.00 0.00 88 1013.7
20260503034249 61 266 0.0 0.0 0.00 0.00 0.00 78 1013.4
20260503033747 62 266 0.0 0.0 0.00 0.00 0.00 87 1013.4
20260503033244 62 266 0.0 0.0 0.00 0.00 0.00 84 1013.4
20260503032742 62 265 0.0 0.0 0.00 0.00 0.00 84 1013.4
20260503032240 63 265 0.0 0.0 0.00 0.00 0.00 87 1013.4
20260503031737 63 266 0.0 0.0 0.00 0.00 0.00 79 1013.4
20260503031235 64 265 0.0 0.0 0.00 0.00 0.00 86 1013.1
20260503030731 64 265 0.0 0.0 0.00 0.00 0.00 81 1013.1
20260503030228 64 266 0.0 0.0 0.00 0.00 0.00 76 1013.1
20260503025725 65 266 0.0 0.0 0.00 0.00 0.00 80 1013.1
20260503025222 65 266 0.0 0.0 0.00 0.00 0.00 75 1013.1
20260503024719 66 265 0.0 0.0 0.00 0.00 0.00 79 1013.1
20260503024216 67 265 0.0 0.0 0.00 0.00 0.00 67 1012.7
20260503023713 67 266 0.0 0.0 0.00 0.00 0.00 66 1012.7
20260503023210 68 265 0.0 0.0 0.00 0.00 0.00 73 1012.7
20260503022706 68 264 0.0 0.0 0.00 0.00 0.00 66 1013.1
20260503022205 69 257 0.0 0.9 0.00 0.00 0.00 64 1012.7
20260503021703 69 260 0.0 0.0 0.00 0.00 0.00 61 1012.7
20260503021159 70 257 0.0 0.0 0.00 0.00 0.00 64 1012.7
20260503020656 71 270 0.0 0.0 0.00 0.00 0.00 58 1012.7
20260503020154 71 274 0.9 0.9 0.00 0.00 0.00 56 1012.7
20260503015650 72 252 0.0 0.9 0.00 0.00 0.00 55 1012.7
20260503015147 73 343 0.0 0.0 0.00 0.00 0.00 49 1012.7
20260503014643 74 256 0.9 0.9 0.00 0.00 0.00 49 1012.7
20260503014141 74 298 0.9 0.9 0.00 0.00 0.00 46 1013.1
20260503013638 74 231 0.9 0.9 0.00 0.00 0.00 50 1012.7
20260503013136 74 293 1.7 1.7 0.00 0.00 0.00 45 1012.7
20260503012633 75 222 0.9 0.9 0.00 0.00 0.00 48 1013.1
20260503012130 76 136 1.7 1.7 0.00 0.00 0.00 43 1012.7
20260503011626 77 222 0.9 0.9 0.00 0.00 0.00 44 1012.7
20260503011124 77 305 2.6 4.3 0.00 0.00 0.00 40 1012.7
20260503010620 77 245 0.0 0.0 0.00 0.00 0.00 45 1012.7
20260503010117 77 271 1.7 1.7 0.00 0.00 0.00 41 1012.7
20260503005614 78 272 0.9 0.9 0.00 0.00 0.00 47 1013.1
20260503005111 77 228 0.9 0.9 0.00 0.00 0.00 44 1012.7
20260503004607 77 245 0.9 0.9 0.00 0.00 0.00 43 1012.7
20260503004106 77 211 0.0 0.9 0.00 0.00 0.00 42 1012.7